Year,Month,Day,Hour,Minute,Value (Times are PST for temperature in C)
2009,07,25,00,00,19.00
2009,07,25,00,01,19.00
2009,07,25,00,02,19.00
2009,07,25,00,03,19.00
2009,07,25,00,04,19.00
2009,07,25,00,05,19.00
2009,07,25,00,06,19.00
2009,07,25,00,07,19.00
2009,07,25,00,08,19.00
2009,07,25,00,09,19.00
2009,07,25,00,10,18.90
2009,07,25,00,11,18.90
2009,07,25,00,12,18.90
2009,07,25,00,13,19.00
2009,07,25,00,14,19.00
2009,07,25,00,15,19.00
2009,07,25,00,16,19.10
2009,07,25,00,17,19.10
2009,07,25,00,18,19.10
2009,07,25,00,19,19.20
2009,07,25,00,20,19.20
2009,07,25,00,21,19.20
2009,07,25,00,22,19.20
2009,07,25,00,23,19.10
2009,07,25,00,24,19.10
2009,07,25,00,25,19.10
2009,07,25,00,26,19.10
2009,07,25,00,27,19.10
2009,07,25,00,28,19.10
2009,07,25,00,29,19.10
2009,07,25,00,30,19.10
2009,07,25,00,31,19.10
2009,07,25,00,32,19.10
2009,07,25,00,33,19.10
2009,07,25,00,34,19.10
2009,07,25,00,35,19.00
2009,07,25,00,36,19.00
2009,07,25,00,37,19.10
2009,07,25,00,38,19.20
2009,07,25,00,39,19.20
2009,07,25,00,40,19.30
2009,07,25,00,41,19.30
2009,07,25,00,42,19.30
2009,07,25,00,43,19.30
2009,07,25,00,44,19.30
2009,07,25,00,45,19.30
2009,07,25,00,46,19.30
2009,07,25,00,47,19.30
2009,07,25,00,48,19.30
2009,07,25,00,49,19.30
2009,07,25,00,50,19.30
2009,07,25,00,51,19.30
2009,07,25,00,52,19.30
2009,07,25,00,53,19.30
2009,07,25,00,54,19.20
2009,07,25,00,55,19.20
2009,07,25,00,56,19.20
2009,07,25,00,57,19.20
2009,07,25,00,58,19.20
2009,07,25,00,59,19.20
2009,07,25,01,00,19.20
2009,07,25,01,01,19.20
2009,07,25,01,02,19.20
2009,07,25,01,03,19.20
2009,07,25,01,04,19.20
2009,07,25,01,05,19.20
2009,07,25,01,06,19.20
2009,07,25,01,07,19.20
2009,07,25,01,08,19.20
2009,07,25,01,09,19.20
2009,07,25,01,10,19.20
2009,07,25,01,11,19.20
2009,07,25,01,12,19.20
2009,07,25,01,13,19.20
2009,07,25,01,14,19.20
2009,07,25,01,15,19.20
2009,07,25,01,16,19.20
2009,07,25,01,17,19.20
2009,07,25,01,18,19.20
2009,07,25,01,19,19.20
2009,07,25,01,20,19.20
2009,07,25,01,21,19.20
2009,07,25,01,22,19.20
2009,07,25,01,23,19.20
2009,07,25,01,24,19.10
2009,07,25,01,25,19.10
2009,07,25,01,26,19.10
2009,07,25,01,27,19.00
2009,07,25,01,28,19.00
2009,07,25,01,29,19.00
2009,07,25,01,30,18.90
2009,07,25,01,31,18.90
2009,07,25,01,32,18.90
2009,07,25,01,33,18.90
2009,07,25,01,34,18.90
2009,07,25,01,35,18.80
2009,07,25,01,36,18.80
2009,07,25,01,37,18.80
2009,07,25,01,38,18.80
2009,07,25,01,39,18.70
2009,07,25,01,40,18.70
2009,07,25,01,41,18.70
2009,07,25,01,42,18.60
2009,07,25,01,43,18.60
2009,07,25,01,44,18.50
2009,07,25,01,45,18.50
2009,07,25,01,46,18.40
2009,07,25,01,47,18.40
2009,07,25,01,48,18.40
2009,07,25,01,49,18.30
2009,07,25,01,50,18.30
2009,07,25,01,51,18.20
2009,07,25,01,52,18.20
2009,07,25,01,53,18.10
2009,07,25,01,54,18.10
2009,07,25,01,55,18.10
2009,07,25,01,56,18.00
2009,07,25,01,57,17.90
2009,07,25,01,58,17.90
2009,07,25,01,59,17.90
2009,07,25,02,00,17.80
2009,07,25,02,01,17.80
2009,07,25,02,02,17.80
2009,07,25,02,03,17.70
2009,07,25,02,04,17.70
2009,07,25,02,05,17.70
2009,07,25,02,06,17.70
2009,07,25,02,07,17.60
2009,07,25,02,08,17.60
2009,07,25,02,09,17.60
2009,07,25,02,10,17.60
2009,07,25,02,11,17.50
2009,07,25,02,12,17.50
2009,07,25,02,13,17.50
2009,07,25,02,14,17.40
2009,07,25,02,15,17.40
2009,07,25,02,16,17.40
2009,07,25,02,17,17.40
2009,07,25,02,18,17.30
2009,07,25,02,19,17.30
2009,07,25,02,20,17.30
2009,07,25,02,21,17.30
2009,07,25,02,22,17.30
2009,07,25,02,23,17.30
2009,07,25,02,24,17.20
2009,07,25,02,25,17.20
2009,07,25,02,26,17.20
2009,07,25,02,27,17.20
2009,07,25,02,28,17.20
2009,07,25,02,29,17.20
2009,07,25,02,30,17.20
2009,07,25,02,31,17.30
2009,07,25,02,32,17.30
2009,07,25,02,33,17.40
2009,07,25,02,34,17.40
2009,07,25,02,35,17.50
2009,07,25,02,36,17.50
2009,07,25,02,37,17.60
2009,07,25,02,38,17.60
2009,07,25,02,39,17.70
2009,07,25,02,40,17.70
2009,07,25,02,41,17.70
2009,07,25,02,42,17.80
2009,07,25,02,43,17.80
2009,07,25,02,44,17.80
2009,07,25,02,45,17.80
2009,07,25,02,46,17.80
2009,07,25,02,47,17.80
2009,07,25,02,48,17.80
2009,07,25,02,49,17.80
2009,07,25,02,50,17.80
2009,07,25,02,51,17.80
2009,07,25,02,52,17.80
2009,07,25,02,53,17.80
2009,07,25,02,54,17.80
2009,07,25,02,55,17.80
2009,07,25,02,56,17.80
2009,07,25,02,57,17.80
2009,07,25,02,58,17.70
2009,07,25,02,59,17.70
2009,07,25,03,00,17.60
2009,07,25,03,01,17.60
2009,07,25,03,02,17.60
2009,07,25,03,03,17.50
2009,07,25,03,04,17.50
2009,07,25,03,05,17.50
2009,07,25,03,06,17.40
2009,07,25,03,07,17.40
2009,07,25,03,08,17.30
2009,07,25,03,09,17.30
2009,07,25,03,10,17.30
2009,07,25,03,11,17.20
2009,07,25,03,12,17.20
2009,07,25,03,13,17.10
2009,07,25,03,14,17.10
2009,07,25,03,15,17.10
2009,07,25,03,16,17.00
2009,07,25,03,17,17.00
2009,07,25,03,18,17.00
2009,07,25,03,19,17.00
2009,07,25,03,20,16.90
2009,07,25,03,21,16.90
2009,07,25,03,22,16.90
2009,07,25,03,23,16.90
2009,07,25,03,24,16.90
2009,07,25,03,25,16.80
2009,07,25,03,26,16.80
2009,07,25,03,27,16.80
2009,07,25,03,28,16.80
2009,07,25,03,29,16.80
2009,07,25,03,30,16.80
2009,07,25,03,31,16.80
2009,07,25,03,32,16.80
2009,07,25,03,33,16.70
2009,07,25,03,34,16.70
2009,07,25,03,35,16.70
2009,07,25,03,36,16.70
2009,07,25,03,37,16.70
2009,07,25,03,38,16.60
2009,07,25,03,39,16.60
2009,07,25,03,40,16.60
2009,07,25,03,41,16.60
2009,07,25,03,42,16.60
2009,07,25,03,43,16.60
2009,07,25,03,44,16.50
2009,07,25,03,45,16.50
2009,07,25,03,46,16.50
2009,07,25,03,47,16.50
2009,07,25,03,48,16.50
2009,07,25,03,49,16.50
2009,07,25,03,50,16.40
2009,07,25,03,51,16.40
2009,07,25,03,52,16.40
2009,07,25,03,53,16.40
2009,07,25,03,54,16.40
2009,07,25,03,55,16.40
2009,07,25,03,56,16.40
2009,07,25,03,57,16.40
2009,07,25,03,58,16.40
2009,07,25,03,59,16.40
2009,07,25,04,00,16.40
2009,07,25,04,01,16.30
2009,07,25,04,02,16.30
2009,07,25,04,03,16.30
2009,07,25,04,11,16.30
2009,07,25,04,12,16.20
2009,07,25,04,13,16.20
2009,07,25,04,14,16.20
2009,07,25,04,15,16.20
2009,07,25,04,16,16.20
2009,07,25,04,17,16.10
2009,07,25,04,18,16.10
2009,07,25,04,19,16.10
2009,07,25,04,20,16.10
2009,07,25,04,21,16.10
2009,07,25,04,22,16.10
2009,07,25,04,23,16.10
2009,07,25,04,24,16.10
2009,07,25,04,25,16.10
2009,07,25,04,26,16.10
2009,07,25,04,27,16.10
2009,07,25,04,28,16.10
2009,07,25,04,29,16.10
2009,07,25,04,30,16.10
2009,07,25,04,31,16.10
2009,07,25,04,32,16.10
2009,07,25,04,33,16.00
2009,07,25,04,34,16.00
2009,07,25,04,35,16.00
2009,07,25,04,36,16.00
2009,07,25,04,37,16.00
2009,07,25,04,38,16.00
2009,07,25,04,39,16.00
2009,07,25,04,40,15.90
2009,07,25,04,41,15.90
2009,07,25,04,42,15.90
2009,07,25,04,43,15.90
2009,07,25,04,44,15.90
2009,07,25,04,45,15.90
2009,07,25,04,46,15.80
2009,07,25,04,47,15.80
2009,07,25,04,48,15.80
2009,07,25,04,49,15.80
2009,07,25,04,50,15.80
2009,07,25,04,51,15.70
2009,07,25,04,52,15.70
2009,07,25,04,53,15.70
2009,07,25,04,54,15.70
2009,07,25,04,55,15.70
2009,07,25,04,56,15.70
2009,07,25,04,57,15.70
2009,07,25,04,58,15.70
2009,07,25,04,59,15.70
2009,07,25,05,00,15.70
2009,07,25,05,01,15.70
2009,07,25,05,02,15.70
2009,07,25,05,03,15.70
2009,07,25,05,04,15.70
2009,07,25,05,05,15.70
2009,07,25,05,06,15.60
2009,07,25,05,07,15.60
2009,07,25,05,08,15.60
2009,07,25,05,09,15.60
2009,07,25,05,10,15.60
2009,07,25,05,11,15.60
2009,07,25,05,12,15.60
2009,07,25,05,13,15.60
2009,07,25,05,14,15.60
2009,07,25,05,15,15.50
2009,07,25,05,16,15.50
2009,07,25,05,17,15.40
2009,07,25,05,18,15.40
2009,07,25,05,19,15.30
2009,07,25,05,20,15.30
2009,07,25,05,21,15.30
2009,07,25,05,22,15.30
2009,07,25,05,23,15.30
2009,07,25,05,24,15.30
2009,07,25,05,25,15.30
2009,07,25,05,26,15.30
2009,07,25,05,27,15.30
2009,07,25,05,28,15.30
2009,07,25,05,29,15.30
2009,07,25,05,30,15.30
2009,07,25,05,31,15.30
2009,07,25,05,32,15.30
2009,07,25,05,33,15.30
2009,07,25,05,34,15.30
2009,07,25,05,35,15.30
2009,07,25,05,36,15.30
2009,07,25,05,37,15.30
2009,07,25,05,38,15.40
2009,07,25,05,39,15.40
2009,07,25,05,40,15.40
2009,07,25,05,41,15.40
2009,07,25,05,42,15.40
2009,07,25,05,43,15.40
2009,07,25,05,44,15.40
2009,07,25,05,45,15.50
2009,07,25,05,46,15.50
2009,07,25,05,47,15.50
2009,07,25,05,48,15.50
2009,07,25,05,49,15.50
2009,07,25,05,50,15.50
2009,07,25,05,51,15.50
2009,07,25,05,52,15.50
2009,07,25,05,53,15.50
2009,07,25,05,54,15.50
2009,07,25,05,55,15.50
2009,07,25,05,56,15.50
2009,07,25,05,57,15.50
2009,07,25,05,58,15.50
2009,07,25,05,59,15.50
2009,07,25,06,00,15.50
2009,07,25,06,01,15.50
2009,07,25,06,02,15.50
2009,07,25,06,03,15.50
2009,07,25,06,04,15.50
2009,07,25,06,05,15.50
2009,07,25,06,06,15.60
2009,07,25,06,07,15.60
2009,07,25,06,08,15.60
2009,07,25,06,09,15.60
2009,07,25,06,10,15.60
2009,07,25,06,11,15.60
2009,07,25,06,12,15.60
2009,07,25,06,13,15.60
2009,07,25,06,14,15.70
2009,07,25,06,15,15.70
2009,07,25,06,16,15.70
2009,07,25,06,17,15.60
2009,07,25,06,18,15.60
2009,07,25,06,19,15.70
2009,07,25,06,20,15.70
2009,07,25,06,21,15.70
2009,07,25,06,22,15.70
2009,07,25,06,23,15.70
2009,07,25,06,24,15.80
2009,07,25,06,25,15.80
2009,07,25,06,26,15.80
2009,07,25,06,27,15.80
2009,07,25,06,28,15.90
2009,07,25,06,29,16.00
2009,07,25,06,30,16.00
2009,07,25,06,31,16.10
2009,07,25,06,32,16.10
2009,07,25,06,33,16.30
2009,07,25,06,34,16.30
2009,07,25,06,35,16.40
2009,07,25,06,36,16.50
2009,07,25,06,37,16.50
2009,07,25,06,38,16.60
2009,07,25,06,39,16.60
2009,07,25,06,40,16.70
2009,07,25,06,41,16.70
2009,07,25,06,42,16.70
2009,07,25,06,43,16.70
2009,07,25,06,44,16.70
2009,07,25,06,45,16.80
2009,07,25,06,46,16.80
2009,07,25,06,47,16.80
2009,07,25,06,48,16.80
2009,07,25,06,49,16.80
2009,07,25,06,50,16.80
2009,07,25,06,51,16.80
2009,07,25,06,52,16.80
2009,07,25,06,53,16.80
2009,07,25,06,54,16.70
2009,07,25,06,55,16.70
2009,07,25,06,56,16.70
2009,07,25,06,57,16.70
2009,07,25,06,58,16.70
2009,07,25,06,59,16.80
2009,07,25,07,00,16.80
2009,07,25,07,01,16.80
2009,07,25,07,02,16.80
2009,07,25,07,03,16.90
2009,07,25,07,04,16.90
2009,07,25,07,05,17.00
2009,07,25,07,06,17.00
2009,07,25,07,07,17.10
2009,07,25,07,08,17.20
2009,07,25,07,09,17.30
2009,07,25,07,10,17.30
2009,07,25,07,11,17.40
2009,07,25,07,12,17.40
2009,07,25,07,13,17.50
2009,07,25,07,14,17.60
2009,07,25,07,15,17.70
2009,07,25,07,16,17.80
2009,07,25,07,17,18.00
2009,07,25,07,18,18.10
2009,07,25,07,19,18.20
2009,07,25,07,20,18.20
2009,07,25,07,21,18.30
2009,07,25,07,22,18.30
2009,07,25,07,23,18.40
2009,07,25,07,24,18.50
2009,07,25,07,25,18.50
2009,07,25,07,26,18.60
2009,07,25,07,27,18.70
2009,07,25,07,28,18.70
2009,07,25,07,29,18.70
2009,07,25,07,30,18.70
2009,07,25,07,31,18.70
2009,07,25,07,32,18.70
2009,07,25,07,33,18.70
2009,07,25,07,34,18.70
2009,07,25,07,35,18.80
2009,07,25,07,36,18.80
2009,07,25,07,37,18.80
2009,07,25,07,38,18.80
2009,07,25,07,39,18.80
2009,07,25,07,40,18.80
2009,07,25,07,41,18.90
2009,07,25,07,42,18.90
2009,07,25,07,43,18.90
2009,07,25,07,44,18.90
2009,07,25,07,45,18.90
2009,07,25,07,46,18.90
2009,07,25,07,47,19.00
2009,07,25,07,48,19.00
2009,07,25,07,49,18.90
2009,07,25,07,50,19.00
2009,07,25,07,51,19.00
2009,07,25,07,52,19.00
2009,07,25,07,53,19.00
2009,07,25,07,54,19.00
2009,07,25,07,55,19.00
2009,07,25,07,56,19.10
2009,07,25,07,57,19.10
2009,07,25,07,58,19.10
2009,07,25,07,59,19.10
2009,07,25,08,00,19.20
2009,07,25,08,01,19.30
2009,07,25,08,02,19.30
2009,07,25,08,03,19.40
2009,07,25,08,04,19.40
2009,07,25,08,05,19.40
2009,07,25,08,06,19.40
2009,07,25,08,07,19.40
2009,07,25,08,08,19.40
2009,07,25,08,09,19.40
2009,07,25,08,10,19.50
2009,07,25,08,11,19.50
2009,07,25,08,12,19.50
2009,07,25,08,13,19.50
2009,07,25,08,14,19.50
2009,07,25,08,15,19.50
2009,07,25,08,16,19.40
2009,07,25,08,17,19.40
2009,07,25,08,18,19.40
2009,07,25,08,19,19.40
2009,07,25,08,20,19.40
2009,07,25,08,21,19.40
2009,07,25,08,22,19.40
2009,07,25,08,23,19.40
2009,07,25,08,24,19.30
2009,07,25,08,25,19.30
2009,07,25,08,26,19.30
2009,07,25,08,27,19.30
2009,07,25,08,28,19.30
2009,07,25,08,29,19.30
2009,07,25,08,30,19.30
2009,07,25,08,31,19.30
2009,07,25,08,32,19.30
2009,07,25,08,33,19.30
2009,07,25,08,34,19.30
2009,07,25,08,35,19.40
2009,07,25,08,36,19.40
2009,07,25,08,37,19.40
2009,07,25,08,38,19.40
2009,07,25,08,39,19.40
2009,07,25,08,40,19.30
2009,07,25,08,41,19.30
2009,07,25,08,42,19.30
2009,07,25,08,43,19.30
2009,07,25,08,44,19.30
2009,07,25,08,45,19.30
2009,07,25,08,46,19.40
2009,07,25,08,47,19.40
2009,07,25,08,48,19.50
2009,07,25,08,49,19.50
2009,07,25,08,50,19.60
2009,07,25,08,51,19.60
2009,07,25,08,52,19.70
2009,07,25,08,53,19.80
2009,07,25,08,54,19.80
2009,07,25,08,55,19.90
2009,07,25,08,56,19.90
2009,07,25,08,57,19.90
2009,07,25,08,58,19.90
2009,07,25,08,59,19.90
2009,07,25,09,00,20.00
2009,07,25,09,01,20.00
2009,07,25,09,02,20.10
2009,07,25,09,03,20.20
2009,07,25,09,04,20.20
2009,07,25,09,05,20.30
2009,07,25,09,06,20.20
2009,07,25,09,07,20.10
2009,07,25,09,08,20.10
2009,07,25,09,09,20.10
2009,07,25,09,10,20.10
2009,07,25,09,11,20.00
2009,07,25,09,12,20.00
2009,07,25,09,13,20.00
2009,07,25,09,14,20.10
2009,07,25,09,15,20.10
2009,07,25,09,16,20.20
2009,07,25,09,17,20.20
2009,07,25,09,18,20.20
2009,07,25,09,19,20.20
2009,07,25,09,20,20.30
2009,07,25,09,21,20.30
2009,07,25,09,22,20.30
2009,07,25,09,23,20.30
2009,07,25,09,24,20.30
2009,07,25,09,25,20.30
2009,07,25,09,26,20.40
2009,07,25,09,27,20.40
2009,07,25,09,28,20.40
2009,07,25,09,29,20.50
2009,07,25,09,30,20.50
2009,07,25,09,31,20.60
2009,07,25,09,32,20.60
2009,07,25,09,33,20.60
2009,07,25,09,34,20.50
2009,07,25,09,35,20.50
2009,07,25,09,36,20.60
2009,07,25,09,37,20.60
2009,07,25,09,38,20.70
2009,07,25,09,39,20.70
2009,07,25,09,40,20.80
2009,07,25,09,41,20.80
2009,07,25,09,42,20.80
2009,07,25,09,43,20.80
2009,07,25,09,44,20.70
2009,07,25,09,45,20.70
2009,07,25,09,46,20.70
2009,07,25,09,47,20.80
2009,07,25,09,48,20.80
2009,07,25,09,49,20.80
2009,07,25,09,50,20.80
2009,07,25,09,51,20.80
2009,07,25,09,52,20.80
2009,07,25,09,53,20.80
2009,07,25,09,54,20.80
2009,07,25,09,55,20.80
2009,07,25,09,56,20.70
2009,07,25,09,57,20.70
2009,07,25,09,58,20.70
2009,07,25,09,59,20.70
2009,07,25,10,00,20.70
2009,07,25,10,01,20.70
2009,07,25,10,02,20.80
2009,07,25,10,03,20.80
2009,07,25,10,04,20.90
2009,07,25,10,05,20.90
2009,07,25,10,06,20.90
2009,07,25,10,07,20.90
2009,07,25,10,08,21.00
2009,07,25,10,09,21.00
2009,07,25,10,10,21.10
2009,07,25,10,11,21.10
2009,07,25,10,12,21.20
2009,07,25,10,13,21.20
2009,07,25,10,14,21.30
2009,07,25,10,15,21.30
2009,07,25,10,16,21.40
2009,07,25,10,17,21.40
2009,07,25,10,18,21.50
2009,07,25,10,19,21.50
2009,07,25,10,20,21.50
2009,07,25,10,21,21.50
2009,07,25,10,22,21.50
2009,07,25,10,23,21.50
2009,07,25,10,24,21.40
2009,07,25,10,25,21.30
2009,07,25,10,26,21.10
2009,07,25,10,27,21.10
2009,07,25,10,28,21.00
2009,07,25,10,29,20.90
2009,07,25,10,30,20.90
2009,07,25,10,31,20.90
2009,07,25,10,32,21.00
2009,07,25,10,33,21.10
2009,07,25,10,34,21.10
2009,07,25,10,35,21.10
2009,07,25,10,36,21.10
2009,07,25,10,37,21.10
2009,07,25,10,38,21.20
2009,07,25,10,39,21.20
2009,07,25,10,40,21.20
2009,07,25,10,41,21.30
2009,07,25,10,42,21.30
2009,07,25,10,43,21.30
2009,07,25,10,44,21.20
2009,07,25,10,45,21.20
2009,07,25,10,46,21.20
2009,07,25,10,47,21.30
2009,07,25,10,48,21.30
2009,07,25,10,49,21.30
2009,07,25,10,50,21.30
2009,07,25,10,51,21.30
2009,07,25,10,52,21.30
2009,07,25,10,53,21.30
2009,07,25,10,54,21.40
2009,07,25,10,55,21.40
2009,07,25,10,56,21.40
2009,07,25,10,57,21.40
2009,07,25,10,58,21.50
2009,07,25,10,59,21.60
2009,07,25,11,00,21.80
2009,07,25,11,01,21.90
2009,07,25,11,02,22.00
2009,07,25,11,03,22.10
2009,07,25,11,04,22.10
2009,07,25,11,05,22.10
2009,07,25,11,06,22.10
2009,07,25,11,07,22.00
2009,07,25,11,08,21.90
2009,07,25,11,09,21.80
2009,07,25,11,10,21.80
2009,07,25,11,11,21.90
2009,07,25,11,12,21.90
2009,07,25,11,13,21.90
2009,07,25,11,14,22.00
2009,07,25,11,15,22.00
2009,07,25,11,16,22.10
2009,07,25,11,17,22.20
2009,07,25,11,18,22.20
2009,07,25,11,19,22.30
2009,07,25,11,20,22.30
2009,07,25,11,21,22.40
2009,07,25,11,22,22.40
2009,07,25,11,23,22.40
2009,07,25,11,24,22.40
2009,07,25,11,25,22.40
2009,07,25,11,26,22.50
2009,07,25,11,27,22.40
2009,07,25,11,28,22.40
2009,07,25,11,29,22.40
2009,07,25,11,30,22.40
2009,07,25,11,31,22.40
2009,07,25,11,32,22.40
2009,07,25,11,33,22.30
2009,07,25,11,34,22.30
2009,07,25,11,35,22.40
2009,07,25,11,36,22.40
2009,07,25,11,37,22.40
2009,07,25,11,38,22.50
2009,07,25,11,39,22.50
2009,07,25,11,40,22.50
2009,07,25,11,41,22.50
2009,07,25,11,42,22.50
2009,07,25,11,43,22.50
2009,07,25,11,44,22.50
2009,07,25,11,45,22.60
2009,07,25,11,46,22.70
2009,07,25,11,47,22.80
2009,07,25,11,48,22.80
2009,07,25,11,49,22.90
2009,07,25,11,50,22.90
2009,07,25,11,51,22.90
2009,07,25,11,52,22.90
2009,07,25,11,53,22.90
2009,07,25,11,54,22.80
2009,07,25,11,55,22.80
2009,07,25,11,56,22.80
2009,07,25,11,57,22.80
2009,07,25,11,58,22.80
2009,07,25,11,59,22.70
2009,07,25,12,00,22.70
2009,07,25,12,01,22.60
2009,07,25,12,02,22.60
2009,07,25,12,03,22.60
2009,07,25,12,04,22.60
2009,07,25,12,05,22.60
2009,07,25,12,06,22.70
2009,07,25,12,07,22.70
2009,07,25,12,08,22.80
2009,07,25,12,09,22.80
2009,07,25,12,10,22.80
2009,07,25,12,11,22.80
2009,07,25,12,12,23.00
2009,07,25,12,13,23.10
2009,07,25,12,14,23.20
2009,07,25,12,15,23.20
2009,07,25,12,16,23.30
2009,07,25,12,17,23.30
2009,07,25,12,18,23.20
2009,07,25,12,19,23.30
2009,07,25,12,20,23.30
2009,07,25,12,21,23.30
2009,07,25,12,22,23.30
2009,07,25,12,23,23.30
2009,07,25,12,24,23.30
2009,07,25,12,25,23.30
2009,07,25,12,26,23.30
2009,07,25,12,27,23.30
2009,07,25,12,28,23.40
2009,07,25,12,29,23.40
2009,07,25,12,30,23.40
2009,07,25,12,31,23.40
2009,07,25,12,32,23.40
2009,07,25,12,33,23.40
2009,07,25,12,34,23.50
2009,07,25,12,35,23.60
2009,07,25,12,36,23.60
2009,07,25,12,37,23.60
2009,07,25,12,38,23.70
2009,07,25,12,39,23.70
2009,07,25,12,40,23.70
2009,07,25,12,41,23.70
2009,07,25,12,42,23.70
2009,07,25,12,43,23.60
2009,07,25,12,44,23.60
2009,07,25,12,45,23.60
2009,07,25,12,46,23.60
2009,07,25,12,47,23.60
2009,07,25,12,48,23.70
2009,07,25,12,49,23.80
2009,07,25,12,50,23.80
2009,07,25,12,51,23.90
2009,07,25,12,52,23.90
2009,07,25,12,53,24.00
2009,07,25,12,54,24.10
2009,07,25,12,55,24.30
2009,07,25,12,56,24.40
2009,07,25,12,57,24.50
2009,07,25,12,58,24.50
2009,07,25,12,59,24.60
2009,07,25,13,00,24.60
2009,07,25,13,01,24.50
2009,07,25,13,02,24.40
2009,07,25,13,03,24.30
2009,07,25,13,04,24.40
2009,07,25,13,05,24.40
2009,07,25,13,06,24.30
2009,07,25,13,07,24.30
2009,07,25,13,08,24.30
2009,07,25,13,09,24.20
2009,07,25,13,10,24.10
2009,07,25,13,11,24.10
2009,07,25,13,12,24.10
2009,07,25,13,13,24.10
2009,07,25,13,14,24.20
2009,07,25,13,15,24.30
2009,07,25,13,16,24.30
2009,07,25,13,17,24.30
2009,07,25,13,18,24.40
2009,07,25,13,19,24.50
2009,07,25,13,20,24.50
2009,07,25,13,21,24.40
2009,07,25,13,22,24.30
2009,07,25,13,23,24.30
2009,07,25,13,24,24.30
2009,07,25,13,25,24.30
2009,07,25,13,26,24.30
2009,07,25,13,27,24.30
2009,07,25,13,28,24.40
2009,07,25,13,29,24.40
2009,07,25,13,30,24.40
2009,07,25,13,31,24.40
2009,07,25,13,32,24.40
2009,07,25,13,33,24.40
2009,07,25,13,34,24.30
2009,07,25,13,35,24.30
2009,07,25,13,36,24.30
2009,07,25,13,37,24.20
2009,07,25,13,38,24.20
2009,07,25,13,39,24.30
2009,07,25,13,40,24.40
2009,07,25,13,41,24.40
2009,07,25,13,42,24.50
2009,07,25,13,43,24.60
2009,07,25,13,44,24.70
2009,07,25,13,45,24.70
2009,07,25,13,46,24.80
2009,07,25,13,47,24.80
2009,07,25,13,48,24.80
2009,07,25,13,49,24.80
2009,07,25,13,50,24.60
2009,07,25,13,51,24.50
2009,07,25,13,52,24.40
2009,07,25,13,53,24.30
2009,07,25,13,54,24.20
2009,07,25,13,55,24.20
2009,07,25,13,56,24.20
2009,07,25,13,57,24.30
2009,07,25,13,58,24.30
2009,07,25,13,59,24.30
2009,07,25,14,00,24.30
2009,07,25,14,01,24.30
2009,07,25,14,02,24.30
2009,07,25,14,03,24.20
2009,07,25,14,04,24.10
2009,07,25,14,05,24.10
2009,07,25,14,06,24.10
2009,07,25,14,07,24.20
2009,07,25,14,08,24.30
2009,07,25,14,09,24.30
2009,07,25,14,10,24.30
2009,07,25,14,11,24.30
2009,07,25,14,12,24.30
2009,07,25,14,13,24.40
2009,07,25,14,14,24.40
2009,07,25,14,15,24.40
2009,07,25,14,16,24.40
2009,07,25,14,17,24.50
2009,07,25,14,18,24.50
2009,07,25,14,19,24.60
2009,07,25,14,20,24.60
2009,07,25,14,21,24.70
2009,07,25,14,22,24.70
2009,07,25,14,23,24.80
2009,07,25,14,24,25.00
2009,07,25,14,25,25.00
2009,07,25,14,26,25.00
2009,07,25,14,27,25.10
2009,07,25,14,28,25.10
2009,07,25,14,29,25.20
2009,07,25,14,30,25.20
2009,07,25,14,31,25.20
2009,07,25,14,32,25.30
2009,07,25,14,33,25.40
2009,07,25,14,34,25.50
2009,07,25,14,35,25.60
2009,07,25,14,36,25.70
2009,07,25,14,37,25.60
2009,07,25,14,38,25.70
2009,07,25,14,39,25.70
2009,07,25,14,40,25.80
2009,07,25,14,41,25.90
2009,07,25,14,42,25.90
2009,07,25,14,43,25.90
2009,07,25,14,44,25.90
2009,07,25,14,45,25.90
2009,07,25,14,46,26.00
2009,07,25,14,47,26.00
2009,07,25,14,48,26.10
2009,07,25,14,49,26.00
2009,07,25,14,50,26.10
2009,07,25,14,51,26.10
2009,07,25,14,52,26.10
2009,07,25,14,53,26.10
2009,07,25,14,54,26.10
2009,07,25,14,55,26.10
2009,07,25,14,56,26.00
2009,07,25,14,57,25.90
2009,07,25,14,58,25.90
2009,07,25,14,59,25.90
2009,07,25,15,00,25.90
2009,07,25,15,01,25.90
2009,07,25,15,02,25.90
2009,07,25,15,03,26.00
2009,07,25,15,04,26.10
2009,07,25,15,05,26.10
2009,07,25,15,06,26.20
2009,07,25,15,07,26.30
2009,07,25,15,08,26.40
2009,07,25,15,09,26.40
2009,07,25,15,10,26.50
2009,07,25,15,11,26.50
2009,07,25,15,12,26.50
2009,07,25,15,13,26.60
2009,07,25,15,14,26.50
2009,07,25,15,15,26.60
2009,07,25,15,16,26.60
2009,07,25,15,17,26.60
2009,07,25,15,18,26.50
2009,07,25,15,19,26.50
2009,07,25,15,20,26.50
2009,07,25,15,21,26.50
2009,07,25,15,22,26.40
2009,07,25,15,23,26.40
2009,07,25,15,24,26.40
2009,07,25,15,25,26.30
2009,07,25,15,26,26.30
2009,07,25,15,27,26.30
2009,07,25,15,28,26.30
2009,07,25,15,29,26.30
2009,07,25,15,30,26.40
2009,07,25,15,31,26.30
2009,07,25,15,32,26.40
2009,07,25,15,33,26.40
2009,07,25,15,34,26.50
2009,07,25,15,35,26.50
2009,07,25,15,36,26.60
2009,07,25,15,37,26.70
2009,07,25,15,38,26.80
2009,07,25,15,39,27.00
2009,07,25,15,40,27.10
2009,07,25,15,41,27.20
2009,07,25,15,42,27.10
2009,07,25,15,43,27.20
2009,07,25,15,44,27.20
2009,07,25,15,45,27.20
2009,07,25,15,46,27.30
2009,07,25,15,47,27.30
2009,07,25,15,48,27.40
2009,07,25,15,49,27.40
2009,07,25,15,50,27.40
2009,07,25,15,51,27.50
2009,07,25,15,52,27.40
2009,07,25,15,53,27.40
2009,07,25,15,54,27.50
2009,07,25,15,55,27.50
2009,07,25,15,56,27.40
2009,07,25,15,57,27.30
2009,07,25,15,58,27.20
2009,07,25,15,59,27.10
2009,07,25,16,00,27.00
2009,07,25,16,01,27.00
2009,07,25,16,02,26.90
2009,07,25,16,03,26.80
2009,07,25,16,04,26.80
2009,07,25,16,05,26.80
2009,07,25,16,06,26.80
2009,07,25,16,07,26.90
2009,07,25,16,08,26.90
2009,07,25,16,09,26.90
2009,07,25,16,10,27.00
2009,07,25,16,11,27.00
2009,07,25,16,12,27.10
2009,07,25,16,13,27.10
2009,07,25,16,14,27.20
2009,07,25,16,15,27.20
2009,07,25,16,16,27.20
2009,07,25,16,17,27.20
2009,07,25,16,18,27.30
2009,07,25,16,19,27.30
2009,07,25,16,20,27.20
2009,07,25,16,21,27.30
2009,07,25,16,22,27.40
2009,07,25,16,23,27.50
2009,07,25,16,24,27.60
2009,07,25,16,25,27.70
2009,07,25,16,26,27.90
2009,07,25,16,27,28.00
2009,07,25,16,28,28.10
2009,07,25,16,29,28.10
2009,07,25,16,30,28.20
2009,07,25,16,31,28.30
2009,07,25,16,32,28.40
2009,07,25,16,33,28.40
2009,07,25,16,34,28.40
2009,07,25,16,35,28.50
2009,07,25,16,36,28.50
2009,07,25,16,37,28.50
2009,07,25,16,38,28.60
2009,07,25,16,39,28.60
2009,07,25,16,40,28.60
2009,07,25,16,41,28.50
2009,07,25,16,42,28.40
2009,07,25,16,43,28.30
2009,07,25,16,44,28.10
2009,07,25,16,45,28.00
2009,07,25,16,46,28.00
2009,07,25,16,47,27.90
2009,07,25,16,48,27.90
2009,07,25,16,49,27.90
2009,07,25,16,50,27.90
2009,07,25,16,51,28.00
2009,07,25,16,52,28.10
2009,07,25,16,53,28.20
2009,07,25,16,54,28.30
2009,07,25,16,55,28.40
2009,07,25,16,56,28.50
2009,07,25,16,57,28.60
2009,07,25,16,58,28.60
2009,07,25,16,59,28.70
2009,07,25,17,00,28.70
2009,07,25,17,01,28.80
2009,07,25,17,02,28.80
2009,07,25,17,03,28.90
2009,07,25,17,04,28.90
2009,07,25,17,05,28.90
2009,07,25,17,06,28.90
2009,07,25,17,07,28.90
2009,07,25,17,08,28.90
2009,07,25,17,09,28.90
2009,07,25,17,10,28.80
2009,07,25,17,11,28.80
2009,07,25,17,12,28.90
2009,07,25,17,13,28.90
2009,07,25,17,14,28.90
2009,07,25,17,15,28.90
2009,07,25,17,16,28.90
2009,07,25,17,17,28.90
2009,07,25,17,18,28.80
2009,07,25,17,19,28.80
2009,07,25,17,20,28.80
2009,07,25,17,21,28.80
2009,07,25,17,22,28.70
2009,07,25,17,23,28.70
2009,07,25,17,24,28.70
2009,07,25,17,25,28.70
2009,07,25,17,26,28.70